Home > Time Zones > World Clock > Weather > Sweden > Lund > Past weeks

Flag for Sweden Weather past 2 weeks in Lund, Sweden

Now
36 °F

Fog.


Feels Like: 28 °F
Forecast: 37 / 44 °F
Wind: 10 mph from Northwest

Location: Malmo / Sturup

Current Time: Mar 5, 2015 at 9:33:24 AM

Latest Report: Mar 5, 2015 at 9:20 AM


Visibility: 6 mi

Pressure: 30.33 "Hg

Humidity: 93%

Dew point: 34 °F

Location of LundLocation

Historic Weather in Lund — Graph

°F

Lund temperature yesterday

Maximum temperature yesterday: 41 °F (at 10:50 AM)
Minimum temperature yesterday: 30 °F (at 10:20 PM)
Average temperature yesterday: 35 °F

Past Weeks' High & Low Weather Summary

 TemperatureHumidityPressure
High45 °F (Feb 26, 2:20 PM)100% (Feb 21, 12:20 AM)30.54 "Hg (Feb 21, 12:20 AM)
Low28 °F (Feb 26, 1:50 AM)65% (Feb 28, 1:20 PM)29.18 "Hg (Feb 21, 4:20 PM)
Average37 °F90%29.76 "Hg
* Reported Feb 18 8:20 AM — Mar 5 8:20 AM, Lund, Weather by CustomWeather, © 2015

Note: Actual official high and low records may vary slightly from our data, if they occured in-between our weather recording intervals... More about our weather records

Advertising

Lund weather history for previous 24 hours

 ConditionsComfort  
Time TempWeatherWind HumidityBarometerVisibility
8:20 AM
Thu, Mar 5
34 °FFog.9 mph100%30.33 "Hg4 mi
7:50 AM34 °FFog.8 mph100%30.30 "Hg5 mi
7:20 AM34 °FFog.9 mph100%30.30 "Hg4 mi
6:50 AM34 °FFog.10 mph100%30.30 "Hg4 mi
6:20 AM34 °FFog.7 mph100%30.30 "Hg3 mi
5:50 AM34 °FFog.9 mph100%30.30 "Hg3 mi
5:20 AM34 °FFog.8 mph100%30.27 "Hg3 mi
4:20 AM34 °FFog.9 mph100%30.27 "Hg1 mi
3:50 AM32 °FFog.10 mph100%30.24 "Hg1 mi
2:50 AM32 °FFog.6 mph100%30.24 "Hg0 mi
2:20 AM32 °FIce fog.6 mph100%30.24 "Hg0 mi
1:50 AM32 °FIce fog.8 mph100%30.21 "Hg0 mi
1:20 AM30 °FIce fog.10 mph100%30.21 "Hg0 mi
12:50 AM30 °FIce fog.8 mph100%30.18 "Hg1 mi
12:20 AM30 °FIce fog.6 mph100%30.18 "Hg2 mi
11:50 PM
Wed, Mar 4
30 °FIce fog.9 mph100%30.15 "Hg3 mi
11:20 PM30 °FIce fog.7 mph100%30.15 "Hg3 mi
10:20 PM30 °FIce fog.6 mph100%30.12 "Hg4 mi
9:50 PM34 °FFog.3 mph93%30.09 "Hg4 mi
9:20 PM32 °FPassing clouds.No wind100%30.07 "HgN/A
8:50 PM32 °FPassing clouds.2 mph100%30.07 "HgN/A
8:20 PM34 °FPassing clouds.2 mph93%30.04 "HgN/A
7:50 PM34 °FPassing clouds.2 mph93%30.04 "HgN/A
7:20 PM34 °FPassing clouds.5 mph100%30.04 "HgN/A
6:50 PM36 °FPassing clouds.2 mph93%30.01 "HgN/A
6:20 PM36 °FFog.3 mph93%30.01 "Hg6 mi
5:50 PM36 °FLight rain. Fog.9 mph93%30.01 "Hg5 mi
5:20 PM36 °FSprinkles. Partly sunny.8 mph100%29.98 "HgN/A
4:50 PM37 °FPartly sunny.7 mph93%29.98 "HgN/A
4:20 PM37 °FSprinkles. Low clouds.9 mph93%29.98 "Hg5 mi
3:50 PM39 °FMore clouds than sun.9 mph87%29.95 "HgN/A
3:20 PM37 °FFog.12 mph93%29.95 "Hg5 mi
2:50 PM36 °FFog.8 mph93%29.95 "Hg4 mi
2:20 PM34 °FLight rain. Mostly cloudy.13 mph93%29.95 "Hg4 mi
1:50 PM37 °FLight rain. Broken clouds.13 mph93%29.92 "Hg6 mi
1:20 PM39 °FPartly sunny.14 mph81%29.92 "HgN/A
12:50 PM39 °FDrizzle. Mostly cloudy.16 mph87%29.92 "HgN/A
12:20 PM41 °FScattered clouds.12 mph81%29.92 "HgN/A
11:50 AM39 °FScattered clouds.13 mph81%29.92 "HgN/A
11:20 AM39 °FScattered clouds.12 mph81%29.92 "HgN/A
10:50 AM41 °FScattered clouds.13 mph81%29.89 "HgN/A
10:20 AM39 °FPartly sunny.12 mph87%29.89 "HgN/A
9:50 AM37 °FScattered clouds.12 mph87%29.89 "HgN/A
9:20 AM37 °FScattered clouds.10 mph93%29.89 "HgN/A
Weather by CustomWeather, © 2015

See weather overviewHow to use our weather pages